GFA515 OEDF-OERK

Flight info

Callsign GFA515
Flight time 0h 45m
Altitude 36000
Route EMUSA2E/34L EMUSA DCT ESRAT ESRAT2A
Aircraft A320/M-VGDW/C

Departure

Time 2026-04-16 12:09
Airport King Fahd International Airport (OEDF)

Arrival

Time 2026-04-16 12:54
Airport King Khalid International Airport (OERK)
Time Latitude Longitude Altitude Speed Heading
2026-04-16 11:32 26.46787 49.79539 70 ft 0 kts 77°
2026-04-16 11:56 26.46785 49.79528 68 ft 2 kts 77°
2026-04-16 11:57 26.46781 49.79509 61 ft 2 kts 78°
2026-04-16 11:57 26.46777 49.79490 61 ft 3 kts 79°
2026-04-16 11:57 26.46777 49.79470 61 ft 2 kts 115°
2026-04-16 11:57 26.46785 49.79454 58 ft 2 kts 115°
2026-04-16 11:58 26.46795 49.79438 60 ft 3 kts 150°
2026-04-16 11:58 26.46802 49.79434 59 ft 0 kts 163°
2026-04-16 12:02 26.46799 49.79435 65 ft 1 kts 163°
2026-04-16 12:03 26.46758 49.79448 63 ft 12 kts 163°
2026-04-16 12:03 26.46649 49.79481 64 ft 16 kts 177°
2026-04-16 12:03 26.46541 49.79492 65 ft 15 kts 174°
2026-04-16 12:03 26.46462 49.79445 65 ft 13 kts 251°
2026-04-16 12:04 26.46435 49.79336 61 ft 16 kts 255°
2026-04-16 12:04 26.46372 49.79235 67 ft 16 kts 195°
2026-04-16 12:04 26.46271 49.79261 65 ft 14 kts 162°
2026-04-16 12:04 26.46179 49.79294 64 ft 13 kts 162°
2026-04-16 12:05 26.46093 49.79320 64 ft 12 kts 166°
2026-04-16 12:05 26.46012 49.79343 67 ft 11 kts 166°
2026-04-16 12:05 26.45938 49.79364 63 ft 10 kts 165°
2026-04-16 12:05 26.45886 49.79380 65 ft 15 kts 165°
2026-04-16 12:06 26.45768 49.79418 63 ft 17 kts 163°
2026-04-16 12:06 26.45623 49.79427 68 ft 15 kts 221°
2026-04-16 12:06 26.45587 49.79315 60 ft 17 kts 254°
2026-04-16 12:06 26.45574 49.79264 63 ft 0 kts 254°
2026-04-16 12:07 26.45572 49.79255 60 ft 5 kts 254°
2026-04-16 12:07 26.45587 49.79149 64 ft 16 kts 328°
2026-04-16 12:08 26.45676 49.79117 60 ft 25 kts 343°
2026-04-16 12:08 26.46053 49.79000 65 ft 92 kts 344°
2026-04-16 12:08 26.46879 49.78746 61 ft 151 kts 345°
2026-04-16 12:08 26.47972 49.78421 483 ft 169 kts 345°
2026-04-16 12:09 26.49143 49.78126 1170 ft 175 kts 348°
2026-04-16 12:09 26.50338 49.77843 1862 ft 178 kts 347°
2026-04-16 12:09 26.51630 49.77451 2196 ft 206 kts 342°
2026-04-16 12:09 26.53088 49.76958 2662 ft 231 kts 341°
2026-04-16 12:10 26.54700 49.76411 3306 ft 249 kts 342°
2026-04-16 12:10 26.56372 49.75859 3800 ft 255 kts 341°
2026-04-16 12:10 26.57948 49.75011 3947 ft 251 kts 316°
2026-04-16 12:10 26.58799 49.73347 3979 ft 252 kts 281°
2026-04-16 12:11 26.58653 49.71365 4579 ft 260 kts 261°
2026-04-16 12:11 26.58425 49.69363 5573 ft 261 kts 274°
2026-04-16 12:11 26.58559 49.67334 6535 ft 263 kts 279°
2026-04-16 12:11 26.58840 49.65323 7404 ft 267 kts 282°
2026-04-16 12:12 26.59205 49.63265 8289 ft 272 kts 283°
2026-04-16 12:12 26.59607 49.61183 9175 ft 277 kts 283°
2026-04-16 12:12 26.60025 49.59060 10035 ft 281 kts 284°
2026-04-16 12:12 26.60461 49.56846 10443 ft 303 kts 283°
2026-04-16 12:13 26.60725 49.54446 10733 ft 328 kts 271°
2026-04-16 12:13 26.60473 49.51845 11220 ft 343 kts 257°
2026-04-16 12:13 26.59643 49.49322 11970 ft 349 kts 243°
2026-04-16 12:13 26.58324 49.47014 12786 ft 352 kts 236°
2026-04-16 12:14 26.56928 49.44751 13590 ft 355 kts 236°
2026-04-16 12:14 26.55534 49.42483 14291 ft 358 kts 236°
2026-04-16 12:14 26.54121 49.40182 14975 ft 361 kts 236°
2026-04-16 12:14 26.52691 49.37852 15664 ft 364 kts 236°
2026-04-16 12:15 26.51251 49.35509 16325 ft 367 kts 236°
2026-04-16 12:15 26.49793 49.33140 17006 ft 371 kts 236°
2026-04-16 12:15 26.48362 49.30768 17668 ft 374 kts 237°
2026-04-16 12:15 26.47001 49.28281 18326 ft 377 kts 240°
2026-04-16 12:16 26.45698 49.25725 18923 ft 379 kts 241°
2026-04-16 12:16 26.44417 49.23128 19531 ft 381 kts 242°
2026-04-16 12:16 26.43134 49.20520 20159 ft 384 kts 242°
2026-04-16 12:16 26.41853 49.17940 20762 ft 386 kts 241°
2026-04-16 12:17 26.40536 49.15321 21363 ft 388 kts 241°
2026-04-16 12:17 26.39197 49.12692 21950 ft 390 kts 241°
2026-04-16 12:17 26.37844 49.10052 22516 ft 393 kts 241°
2026-04-16 12:17 26.36480 49.07397 23061 ft 395 kts 242°
2026-04-16 12:18 26.35107 49.04724 23583 ft 398 kts 242°
2026-04-16 12:18 26.33726 49.02034 24008 ft 400 kts 242°
2026-04-16 12:18 26.32341 48.99333 24422 ft 403 kts 242°
2026-04-16 12:18 26.30964 48.96643 24823 ft 405 kts 242°
2026-04-16 12:19 26.29559 48.93898 25220 ft 408 kts 242°
2026-04-16 12:19 26.28145 48.91141 25610 ft 410 kts 242°
2026-04-16 12:19 26.26722 48.88369 25989 ft 413 kts 242°
2026-04-16 12:19 26.25287 48.85579 26363 ft 415 kts 242°
2026-04-16 12:20 26.23844 48.82773 26730 ft 418 kts 242°
2026-04-16 12:20 26.22405 48.79979 27086 ft 421 kts 242°
2026-04-16 12:20 26.20943 48.77141 27438 ft 423 kts 242°
2026-04-16 12:20 26.19477 48.74273 27782 ft 425 kts 244°
2026-04-16 12:21 26.18319 48.71284 28109 ft 425 kts 253°
2026-04-16 12:21 26.17585 48.68092 28429 ft 427 kts 259°
2026-04-16 12:21 26.16970 48.64850 28750 ft 429 kts 259°
2026-04-16 12:21 26.16352 48.61590 29048 ft 431 kts 259°
2026-04-16 12:22 26.15729 48.58313 29334 ft 433 kts 259°
2026-04-16 12:22 26.15099 48.55018 29617 ft 435 kts 259°
2026-04-16 12:22 26.14463 48.51704 29893 ft 437 kts 259°
2026-04-16 12:22 26.13832 48.48420 30113 ft 439 kts 259°
2026-04-16 12:23 26.13193 48.45094 30404 ft 438 kts 259°
2026-04-16 12:23 26.12559 48.41781 30748 ft 436 kts 259°
2026-04-16 12:23 26.11927 48.38482 31090 ft 434 kts 259°
2026-04-16 12:23 26.11296 48.35211 31448 ft 431 kts 259°
2026-04-16 12:24 26.10670 48.31956 31804 ft 429 kts 259°
2026-04-16 12:24 26.10052 48.28760 32162 ft 427 kts 259°
2026-04-16 12:24 26.09428 48.25543 32534 ft 424 kts 259°
2026-04-16 12:24 26.08807 48.22341 32898 ft 422 kts 259°
2026-04-16 12:25 26.08187 48.19154 33263 ft 420 kts 259°
2026-04-16 12:25 26.07571 48.15991 33624 ft 417 kts 259°
2026-04-16 12:25 26.06958 48.12842 33890 ft 416 kts 259°
2026-04-16 12:25 26.06347 48.09703 33938 ft 413 kts 259°
2026-04-16 12:26 26.05132 48.03473 33937 ft 411 kts 259°
2026-04-16 12:26 26.03923 47.97277 33936 ft 411 kts 259°
2026-04-16 12:27 26.02706 47.91058 33938 ft 411 kts 259°
2026-04-16 12:27 26.01483 47.84839 33945 ft 411 kts 259°
2026-04-16 12:28 26.00257 47.78616 33942 ft 411 kts 259°
2026-04-16 12:28 25.99026 47.72400 33944 ft 412 kts 259°
2026-04-16 12:29 25.97798 47.66177 33948 ft 412 kts 259°
2026-04-16 12:29 25.96576 47.59996 33950 ft 412 kts 259°
2026-04-16 12:30 25.95343 47.53768 33940 ft 412 kts 259°
2026-04-16 12:30 25.94108 47.47577 33945 ft 412 kts 259°
2026-04-16 12:31 25.92855 47.41339 33907 ft 413 kts 258°
2026-04-16 12:31 25.92228 47.38211 32689 ft 420 kts 259°
2026-04-16 12:31 25.91583 47.34985 31150 ft 434 kts 258°
2026-04-16 12:32 25.90927 47.31694 30160 ft 434 kts 258°
2026-04-16 12:32 25.90275 47.28436 29271 ft 430 kts 258°
2026-04-16 12:32 25.89624 47.25195 28278 ft 429 kts 258°
2026-04-16 12:32 25.88987 47.22027 27548 ft 422 kts 258°
2026-04-16 12:33 25.88301 47.18879 26801 ft 418 kts 253°
2026-04-16 12:33 25.87099 47.15955 26107 ft 416 kts 241°
2026-04-16 12:33 25.85305 47.13444 25423 ft 418 kts 228°
2026-04-16 12:33 25.82989 47.11467 24749 ft 421 kts 214°
2026-04-16 12:34 25.80285 47.10166 24083 ft 426 kts 201°
2026-04-16 12:34 25.77385 47.09654 23642 ft 428 kts 186°
2026-04-16 12:34 25.74413 47.09951 23524 ft 420 kts 173°
2026-04-16 12:34 25.71694 47.10928 23385 ft 411 kts 163°
2026-04-16 12:35 25.69076 47.12105 23213 ft 399 kts 163°
2026-04-16 12:35 25.66481 47.13278 22140 ft 409 kts 163°
2026-04-16 12:35 25.63795 47.14490 21099 ft 422 kts 162°
2026-04-16 12:35 25.61114 47.15710 20912 ft 409 kts 162°
2026-04-16 12:36 25.58545 47.16888 20584 ft 401 kts 162°
2026-04-16 12:36 25.55953 47.18071 20112 ft 402 kts 162°
2026-04-16 12:36 25.53368 47.19242 19947 ft 402 kts 163°
2026-04-16 12:36 25.50769 47.20418 19970 ft 403 kts 162°
2026-04-16 12:37 25.48170 47.21594 19975 ft 403 kts 163°
2026-04-16 12:37 25.45604 47.22756 19972 ft 403 kts 162°
2026-04-16 12:37 25.43003 47.23912 19967 ft 401 kts 166°
2026-04-16 12:37 25.40352 47.24614 19964 ft 379 kts 179°
2026-04-16 12:38 25.37802 47.24688 19966 ft 354 kts 191°
2026-04-16 12:38 25.35442 47.24239 19970 ft 336 kts 201°
2026-04-16 12:38 25.33292 47.23360 19768 ft 324 kts 211°
2026-04-16 12:38 25.31372 47.22104 19405 ft 316 kts 221°
2026-04-16 12:39 25.29738 47.20559 19038 ft 310 kts 230°
2026-04-16 12:39 25.28296 47.18797 18663 ft 307 kts 232°
2026-04-16 12:39 25.26872 47.17040 18306 ft 306 kts 232°
2026-04-16 12:39 25.25452 47.15298 17888 ft 304 kts 232°
2026-04-16 12:40 25.24034 47.13562 17493 ft 303 kts 231°
2026-04-16 12:40 25.22626 47.11837 17105 ft 301 kts 231°
2026-04-16 12:40 25.21241 47.10140 16740 ft 300 kts 231°
2026-04-16 12:40 25.19845 47.08433 16353 ft 298 kts 231°
2026-04-16 12:41 25.18458 47.06736 15985 ft 297 kts 231°
2026-04-16 12:41 25.17073 47.05044 15645 ft 295 kts 231°
2026-04-16 12:41 25.15710 47.03378 15468 ft 287 kts 231°
2026-04-16 12:41 25.14390 47.01764 15346 ft 279 kts 231°
2026-04-16 12:42 25.13106 47.00196 15199 ft 271 kts 231°
2026-04-16 12:42 25.11865 46.98679 14946 ft 268 kts 231°
2026-04-16 12:42 25.10621 46.97154 14595 ft 267 kts 230°
2026-04-16 12:42 25.09381 46.95634 14239 ft 265 kts 230°
2026-04-16 12:43 25.08144 46.94121 13882 ft 264 kts 230°
2026-04-16 12:43 25.06915 46.92619 13496 ft 263 kts 230°
2026-04-16 12:43 25.05702 46.91140 13083 ft 263 kts 230°
2026-04-16 12:43 25.04510 46.89604 12712 ft 262 kts 238°
2026-04-16 12:44 25.03914 46.87737 12381 ft 259 kts 266°
2026-04-16 12:44 25.04217 46.85789 12056 ft 261 kts 291°
2026-04-16 12:44 25.05120 46.84041 11991 ft 267 kts 310°
2026-04-16 12:44 25.06590 46.82759 12000 ft 273 kts 326°
2026-04-16 12:45 25.08250 46.81775 12006 ft 275 kts 330°
2026-04-16 12:45 25.09963 46.80826 12003 ft 275 kts 330°
2026-04-16 12:45 25.11660 46.79845 12000 ft 274 kts 324°
2026-04-16 12:45 25.13266 46.78715 11999 ft 274 kts 326°
2026-04-16 12:46 25.14925 46.77652 11996 ft 274 kts 327°
2026-04-16 12:46 25.16585 46.76605 11997 ft 275 kts 327°
2026-04-16 12:46 25.18223 46.75574 11998 ft 275 kts 327°
2026-04-16 12:46 25.19889 46.74526 11998 ft 275 kts 327°
2026-04-16 12:47 25.21556 46.73477 11997 ft 275 kts 327°
2026-04-16 12:47 25.23146 46.72327 11968 ft 271 kts 314°
2026-04-16 12:47 25.24232 46.70701 11843 ft 257 kts 291°
2026-04-16 12:47 25.24649 46.68865 11603 ft 241 kts 271°
2026-04-16 12:48 25.24436 46.67060 11178 ft 237 kts 250°
2026-04-16 12:48 25.23657 46.65469 10688 ft 237 kts 232°
2026-04-16 12:48 25.22611 46.64045 10163 ft 239 kts 231°
2026-04-16 12:48 25.21577 46.62635 9692 ft 239 kts 231°
2026-04-16 12:49 25.20539 46.61213 9182 ft 237 kts 231°
2026-04-16 12:49 25.19509 46.59798 8658 ft 236 kts 231°
2026-04-16 12:49 25.18485 46.58387 8160 ft 234 kts 231°
2026-04-16 12:49 25.17389 46.57066 7648 ft 233 kts 216°
2026-04-16 12:50 25.15927 46.56393 7176 ft 232 kts 187°
2026-04-16 12:50 25.14342 46.56592 6683 ft 232 kts 157°
2026-04-16 12:50 25.12919 46.57448 6194 ft 233 kts 150°
2026-04-16 12:50 25.11511 46.58349 5723 ft 233 kts 150°
2026-04-16 12:51 25.10143 46.59220 5541 ft 219 kts 150°
2026-04-16 12:51 25.08867 46.60030 5347 ft 206 kts 150°
2026-04-16 12:51 25.07622 46.60817 4860 ft 212 kts 151°
2026-04-16 12:51 25.06354 46.61621 4462 ft 203 kts 151°
2026-04-16 12:52 25.05160 46.62378 4002 ft 195 kts 151°
2026-04-16 12:52 25.03989 46.63120 3668 ft 194 kts 151°
2026-04-16 12:52 25.02849 46.63842 3401 ft 181 kts 151°
2026-04-16 12:52 25.01809 46.64502 3188 ft 164 kts 151°
2026-04-16 12:53 25.00868 46.65098 2968 ft 153 kts 151°
2026-04-16 12:53 24.99972 46.65665 2766 ft 145 kts 150°
2026-04-16 12:53 24.99104 46.66215 2567 ft 142 kts 150°
2026-04-16 12:53 24.98251 46.66754 2375 ft 141 kts 149°
2026-04-16 12:54 24.97404 46.67294 2188 ft 139 kts 148°
2026-04-16 12:54 24.96579 46.67823 2063 ft 129 kts 149°
2026-04-16 12:54 24.95920 46.68239 2055 ft 89 kts 150°
2026-04-16 12:54 24.95737 46.68357 2054 ft 5 kts 150°
2026-04-16 12:55 24.95711 46.68373 2054 ft 4 kts 149°
2026-04-16 12:55 24.95680 46.68393 2054 ft 13 kts 149°
2026-04-16 12:55 24.95550 46.68501 2053 ft 26 kts 127°
2026-04-16 12:55 24.95512 46.68569 2054 ft 0 kts 121°
2026-04-16 12:56 24.95495 46.68605 2054 ft 15 kts 113°
2026-04-16 12:56 24.95486 46.68655 2054 ft 0 kts 89°
2026-04-16 12:58 24.95486 46.68656 2054 ft 1 kts 89°
2026-04-16 12:58 24.95486 46.68680 2054 ft 10 kts 89°
2026-04-16 12:59 24.95515 46.68789 2054 ft 18 kts 67°
2026-04-16 12:59 24.95447 46.68873 2053 ft 17 kts 153°
2026-04-16 12:59 24.95340 46.68944 2053 ft 20 kts 150°
2026-04-16 13:00 24.95050 46.69128 2051 ft 28 kts 149°
2026-04-16 13:00 24.94869 46.69241 2050 ft 31 kts 151°
2026-04-16 13:00 24.94679 46.69360 2052 ft 32 kts 150°
2026-04-16 13:00 24.94527 46.69458 2049 ft 18 kts 149°
2026-04-16 13:01 24.94512 46.69514 2049 ft 9 kts 89°
2026-04-16 13:01 24.94574 46.69635 2048 ft 32 kts 60°
2026-04-16 13:01 24.94725 46.69926 2046 ft 51 kts 60°
2026-04-16 13:01 24.94900 46.70257 2043 ft 49 kts 61°
2026-04-16 13:02 24.95066 46.70571 2040 ft 47 kts 60°
2026-04-16 13:02 24.95190 46.70811 2043 ft 21 kts 65°
2026-04-16 13:02 24.95144 46.70897 2041 ft 16 kts 146°
2026-04-16 13:02 24.95038 46.70965 2042 ft 20 kts 150°
2026-04-16 13:03 24.94898 46.71053 2033 ft 26 kts 149°
2026-04-16 13:03 24.94738 46.71156 2032 ft 28 kts 150°
2026-04-16 13:03 24.94639 46.71217 2034 ft 12 kts 153°
2026-04-16 13:03 24.94582 46.71224 2031 ft 1 kts 260°
2026-04-16 13:04 24.94587 46.71209 2039 ft 4 kts 285°
2026-04-16 13:04 24.94573 46.71165 2037 ft 8 kts 238°
2026-04-16 13:04 24.94554 46.71131 2032 ft 0 kts 240°